Maxwell AFB, AL

9:39 PM CST on December 16, 2017 (GMT -0600)
Maxwell Air Force Base

Weather History for KMXF - October, 2012

Change the Weather History Date:

Monday, October 8, 2012

  Actual Average Record
Temperature  
Mean Temperature 62 °F -  
Max Temperature 71 °F 78 °F 91 °F (2007)
Min Temperature 53 °F 58 °F 44 °F (2000)
Degree Days  
Heating Degree Days 4    
Growing Degree Days 12 (Base 50)    
Moisture  
Dew Point 48 °F    
Average Humidity 66    
Maximum Humidity 82    
Minimum Humidity 44    
Precipitation  
Precipitation 0.00 in - - ()
Sea Level Pressure  
Sea Level Pressure 30.11 in    
Wind  
Wind Speed 6 mph (North)    
Max Wind Speed 13 mph    
Max Gust Speed -    
Visibility 10 miles    
Events      
Averages and records for this station are not official NWS values.
T = Trace of Precipitation, MM = Missing Value Source: NWS Daily Summary

Daily Weather History Graph

Daily Weather History Graph

Search for Another Location

Airport or City:

Trip Planner

Search our weather history database for the weather conditions in past years. The results will help you decide how hot, cold, wet, or windy it might be!

Date:

Astronomy

Oct. 08, 2012 Rise Set
Actual Time 6:44 AM CDT 6:20 PM CDT
Civil Twilight 6:19 AM CDT 6:45 PM CDT
Nautical Twilight 5:51 AM CDT 7:13 PM CDT
Astronomical Twilight 5:23 AM CDT 7:41 PM CDT
Moon No Moon Rise 1:49 PM CDT (10/8)
Length of Visible Light 12h 25m
Length of Day
11h 36m
Last Quarter, 46% of the Moon is Illuminated
Oct 8
Last Quarter
Oct 15
New
Oct 21
First Quarter
Oct 29
Full
Nov 6
Last Quarter

Hourly Weather History & Observations

Time (CDT) Temp. Dew Point Humidity Pressure Visibility Wind Dir Wind Speed Gust Speed Precip Events Conditions
12:55 AM 55.4 °F 47.5 °F 75% 30.10 in 10.0 mi North 3.5 mph - N/A   Partly Cloudy
1:55 AM 55.0 °F 46.9 °F 74% 30.10 in 10.0 mi North 5.8 mph - N/A   Clear
2:55 AM 54.7 °F 47.1 °F 76% 30.09 in 10.0 mi North 4.6 mph - N/A   Clear
3:55 AM 54.5 °F 48.0 °F 79% 30.07 in 10.0 mi North 3.5 mph - N/A   Clear
4:55 AM 54.7 °F 48.0 °F 78% 30.06 in 10.0 mi NE 5.8 mph - N/A   Scattered Clouds
5:55 AM 53.8 °F 47.8 °F 80% 30.08 in 10.0 mi North 4.6 mph - N/A   Mostly Cloudy
6:55 AM 53.2 °F 47.8 °F 82% 30.11 in 10.0 mi NNW 4.6 mph - N/A   Scattered Clouds
7:55 AM 54.9 °F 46.8 °F 74% 30.14 in 10.0 mi North 10.4 mph - N/A   Mostly Cloudy
8:55 AM 57.9 °F 46.9 °F 67% 30.15 in 10.0 mi NNW 9.2 mph - N/A   Clear
9:55 AM 60.8 °F 45.9 °F 58% 30.16 in 10.0 mi NNE 8.1 mph - N/A   Clear
10:55 AM 63.5 °F 46.4 °F 54% 30.15 in 10.0 mi NNE 6.9 mph - N/A   Clear
11:55 AM 66.4 °F 47.1 °F 50% 30.14 in 10.0 mi Calm Calm - N/A   Clear
12:55 PM 69.4 °F 47.7 °F 46% 30.11 in 10.0 mi North 9.2 mph - N/A   Clear
1:55 PM 70.9 °F 48.0 °F 44% 30.09 in 10.0 mi North 10.4 mph - N/A   Clear
2:55 PM 70.5 °F 49.5 °F 47% 30.07 in 10.0 mi NNW 5.8 mph - N/A   Clear
3:55 PM 70.2 °F 48.7 °F 46% 30.07 in 10.0 mi NNW 11.5 mph - N/A   Clear
4:55 PM 68.4 °F 48.9 °F 50% 30.07 in 10.0 mi North 12.7 mph - N/A   Clear
5:55 PM 65.3 °F 50.0 °F 58% 30.08 in 10.0 mi NNW 9.2 mph - N/A   Clear
6:55 PM 61.5 °F 49.8 °F 65% 30.10 in 10.0 mi North 10.4 mph - N/A   Clear
7:55 PM 59.4 °F 49.8 °F 71% 30.10 in 10.0 mi North 6.9 mph - N/A   Clear
8:55 PM 57.6 °F 49.5 °F 74% 30.13 in 10.0 mi NNE 6.9 mph - N/A   Clear
9:55 PM 56.3 °F 48.7 °F 76% 30.13 in 10.0 mi North 5.8 mph - N/A   Clear
10:55 PM 55.0 °F 48.4 °F 78% 30.14 in 10.0 mi North 6.9 mph - N/A   Clear
11:55 PM 53.8 °F 48.4 °F 82% 30.14 in 10.0 mi North 4.6 mph - N/A   Clear